Location: Gleizolles
(44.4833°N, 6.7667°E)
Time: 23:42:51
(UTC+00:00)

S-56A Canister/Altair - Pass Details

Date: 03 July 2024
Orbit: 638 x 2488 km, 38.9° (Epoch: 24 July)

Event Time Altitude Azimuth Distance (km) Brightness Sun altitude
Rises 17:16:43 0° 233° (SW) 3,149 11.3 19.4°
Reaches altitude 10° 17:18:57 10° 225° (SW) 2,359 10.6 19.0°
Maximum altitude 17:24:03 39° 157° (SSE) 1,423 8.8 18.1°
Drops below altitude 10° 17:31:13 10° 91° (E) 3,338 10.3 16.9°
Sets 17:34:58 0° 85° (E) 4,635 10.9 16.2°
